Location: Oak Glen
(34.0495°N, 116.9470°E)
Time: 13:05:13
(UTC-08:00)

Vanguard 1 - Pass Details

Date: 19 June 2018
Orbit: 649 x 3834 km, 34.3° (Epoch: 18 November)

Event Time Altitude Azimuth Distance (km) Brightness Sun altitude
Rises 17:39:31 0° 266° (W) 5,334 13.4 42.4°
Reaches altitude 10° 17:42:21 10° 267° (W) 4,663 13.2 43.0°
Maximum altitude 17:57:03 89° 358° (N) 3,152 13.5 46.0°
Drops below altitude 10° 18:20:35 10° 92° (E) 6,939 15.3 50.9°
Sets 18:26:00 0° 92° (E) 7,927 15.3 52.0°
